UPS882 KSDF-KRFD

Flight info

Callsign UPS882
Flight time 0h 54m
Altitude 40000
Route SPILR1 BNGIN DECEE MACES QUOTE1
Aircraft B752/M-SDE3FGHIM3RWXY/LB1

Departure

Time 2026-04-29 23:35
Airport Louisville Muhammad Ali International Airport (KSDF)

Arrival

Time 2026-04-30 00:29
Airport Chicago Rockford International Airport (KRFD)
Time Latitude Longitude Altitude Speed Heading
2026-04-29 22:49 38.17261 -85.73789 479 ft 0 kts 200°
2026-04-29 23:18 38.17264 -85.73789 478 ft 2 kts 200°
2026-04-29 23:18 38.17278 -85.73782 479 ft 2 kts 200°
2026-04-29 23:18 38.17292 -85.73775 479 ft 2 kts 200°
2026-04-29 23:18 38.17306 -85.73767 479 ft 2 kts 224°
2026-04-29 23:19 38.17314 -85.73751 479 ft 2 kts 256°
2026-04-29 23:19 38.17314 -85.73733 479 ft 1 kts 285°
2026-04-29 23:19 38.17312 -85.73726 479 ft 1 kts 292°
2026-04-29 23:19 38.17311 -85.73724 479 ft 0 kts 291°
2026-04-29 23:24 38.17312 -85.73726 479 ft 1 kts 291°
2026-04-29 23:24 38.17321 -85.73757 479 ft 7 kts 290°
2026-04-29 23:24 38.17345 -85.73836 479 ft 9 kts 290°
2026-04-29 23:24 38.17368 -85.73912 479 ft 8 kts 291°
2026-04-29 23:25 38.17388 -85.73974 480 ft 6 kts 290°
2026-04-29 23:25 38.17395 -85.73998 480 ft 0 kts 290°
2026-04-29 23:25 38.17398 -85.74008 480 ft 2 kts 290°
2026-04-29 23:25 38.17408 -85.74042 480 ft 6 kts 290°
2026-04-29 23:26 38.17427 -85.74103 480 ft 3 kts 289°
2026-04-29 23:26 38.17428 -85.74107 480 ft 1 kts 289°
2026-04-29 23:26 38.17432 -85.74143 480 ft 6 kts 269°
2026-04-29 23:27 38.17422 -85.74216 480 ft 10 kts 256°
2026-04-29 23:27 38.17359 -85.74270 479 ft 13 kts 176°
2026-04-29 23:27 38.17247 -85.74236 478 ft 19 kts 166°
2026-04-29 23:27 38.17099 -85.74190 476 ft 24 kts 165°
2026-04-29 23:28 38.16935 -85.74135 473 ft 24 kts 165°
2026-04-29 23:28 38.16781 -85.74083 471 ft 22 kts 165°
2026-04-29 23:28 38.16631 -85.74033 469 ft 22 kts 165°
2026-04-29 23:28 38.16481 -85.73984 467 ft 21 kts 165°
2026-04-29 23:29 38.16337 -85.73937 466 ft 20 kts 166°
2026-04-29 23:29 38.16198 -85.73890 465 ft 20 kts 165°
2026-04-29 23:29 38.16065 -85.73846 464 ft 19 kts 166°
2026-04-29 23:29 38.15940 -85.73805 464 ft 18 kts 166°
2026-04-29 23:30 38.15868 -85.73809 463 ft 0 kts 212°
2026-04-29 23:31 38.15862 -85.73817 463 ft 2 kts 226°
2026-04-29 23:32 38.15849 -85.73840 463 ft 4 kts 240°
2026-04-29 23:32 38.15837 -85.73879 463 ft 5 kts 257°
2026-04-29 23:32 38.15851 -85.73930 463 ft 8 kts 318°
2026-04-29 23:32 38.15883 -85.73949 463 ft 0 kts 343°
2026-04-29 23:33 38.15884 -85.73949 463 ft 1 kts 343°
2026-04-29 23:34 38.16054 -85.74010 463 ft 58 kts 345°
2026-04-29 23:34 38.16679 -85.74212 470 ft 124 kts 345°
2026-04-29 23:34 38.17694 -85.74540 519 ft 175 kts 346°
2026-04-29 23:34 38.18944 -85.74918 1055 ft 188 kts 342°
2026-04-29 23:35 38.20170 -85.75336 2067 ft 184 kts 338°
2026-04-29 23:35 38.21323 -85.76077 2707 ft 196 kts 327°
2026-04-29 23:35 38.22548 -85.77018 3263 ft 215 kts 329°
2026-04-29 23:35 38.23877 -85.78005 3893 ft 231 kts 329°
2026-04-29 23:36 38.25327 -85.79081 4507 ft 248 kts 329°
2026-04-29 23:36 38.26812 -85.80179 5490 ft 249 kts 328°
2026-04-29 23:36 38.28316 -85.81287 6318 ft 255 kts 329°
2026-04-29 23:36 38.29906 -85.82246 7200 ft 259 kts 331°
2026-04-29 23:37 38.31548 -85.83205 8039 ft 263 kts 330°
2026-04-29 23:37 38.33221 -85.84184 8878 ft 267 kts 329°
2026-04-29 23:37 38.34896 -85.85159 9672 ft 271 kts 328°
2026-04-29 23:37 38.36616 -85.86159 10492 ft 274 kts 328°
2026-04-29 23:38 38.38392 -85.87198 10915 ft 292 kts 328°
2026-04-29 23:38 38.40308 -85.88316 11298 ft 310 kts 328°
2026-04-29 23:38 38.42321 -85.89486 11729 ft 325 kts 328°
2026-04-29 23:38 38.44377 -85.90674 12579 ft 326 kts 328°
2026-04-29 23:39 38.46431 -85.91866 13350 ft 329 kts 328°
2026-04-29 23:39 38.48512 -85.93074 14145 ft 331 kts 327°
2026-04-29 23:39 38.50615 -85.94298 14902 ft 334 kts 327°
2026-04-29 23:39 38.52709 -85.95518 15693 ft 337 kts 327°
2026-04-29 23:40 38.54848 -85.96765 16360 ft 342 kts 327°
2026-04-29 23:40 38.57025 -85.98023 17127 ft 344 kts 328°
2026-04-29 23:40 38.59293 -85.99165 17629 ft 354 kts 330°
2026-04-29 23:40 38.61551 -86.00283 18336 ft 355 kts 329°
2026-04-29 23:41 38.63863 -86.01445 19021 ft 357 kts 329°
2026-04-29 23:41 38.66197 -86.02625 19597 ft 362 kts 329°
2026-04-29 23:41 38.68518 -86.03802 20228 ft 364 kts 329°
2026-04-29 23:41 38.70905 -86.05014 20807 ft 368 kts 329°
2026-04-29 23:42 38.73288 -86.06226 21398 ft 371 kts 329°
2026-04-29 23:42 38.75690 -86.07450 21965 ft 373 kts 329°
2026-04-29 23:42 38.78076 -86.08666 22596 ft 374 kts 328°
2026-04-29 23:42 38.80497 -86.09904 23062 ft 379 kts 328°
2026-04-29 23:43 38.82956 -86.11159 23625 ft 380 kts 328°
2026-04-29 23:43 38.85416 -86.12417 24151 ft 383 kts 328°
2026-04-29 23:43 38.87910 -86.13695 24612 ft 387 kts 328°
2026-04-29 23:43 38.90406 -86.14971 25138 ft 388 kts 328°
2026-04-29 23:44 38.92910 -86.16254 25680 ft 389 kts 328°
2026-04-29 23:44 38.95432 -86.17548 26117 ft 392 kts 327°
2026-04-29 23:44 38.97949 -86.18840 26676 ft 391 kts 328°
2026-04-29 23:44 39.00462 -86.20130 27115 ft 394 kts 327°
2026-04-29 23:45 39.03039 -86.21458 27560 ft 396 kts 327°
2026-04-29 23:45 39.05577 -86.22762 28007 ft 397 kts 327°
2026-04-29 23:45 39.08157 -86.24092 28401 ft 400 kts 327°
2026-04-29 23:45 39.10749 -86.25429 28732 ft 403 kts 327°
2026-04-29 23:46 39.13347 -86.26766 29266 ft 402 kts 327°
2026-04-29 23:46 39.15973 -86.28124 29517 ft 408 kts 327°
2026-04-29 23:46 39.18616 -86.29490 29900 ft 409 kts 327°
2026-04-29 23:46 39.21243 -86.30846 30339 ft 409 kts 327°
2026-04-29 23:47 39.23881 -86.32214 30521 ft 414 kts 327°
2026-04-29 23:47 39.26560 -86.33602 30786 ft 417 kts 327°
2026-04-29 23:47 39.29264 -86.35001 31266 ft 414 kts 327°
2026-04-29 23:47 39.31926 -86.36383 31443 ft 418 kts 327°
2026-04-29 23:48 39.34614 -86.37779 31749 ft 419 kts 327°
2026-04-29 23:48 39.37361 -86.39208 31847 ft 425 kts 327°
2026-04-29 23:48 39.40056 -86.40604 32410 ft 418 kts 327°
2026-04-29 23:48 39.42736 -86.41997 32765 ft 417 kts 327°
2026-04-29 23:49 39.45419 -86.43396 33099 ft 416 kts 327°
2026-04-29 23:49 39.48122 -86.44806 33358 ft 416 kts 327°
2026-04-29 23:49 39.50781 -86.46193 33652 ft 415 kts 328°
2026-04-29 23:49 39.53459 -86.47591 33830 ft 416 kts 327°
2026-04-29 23:50 39.56149 -86.48998 34077 ft 416 kts 327°
2026-04-29 23:50 39.58796 -86.50384 34382 ft 413 kts 328°
2026-04-29 23:50 39.64165 -86.53196 34806 ft 414 kts 328°
2026-04-29 23:51 39.66813 -86.54587 34900 ft 417 kts 328°
2026-04-29 23:51 39.69506 -86.55999 35216 ft 415 kts 328°
2026-04-29 23:51 39.72183 -86.57405 35358 ft 416 kts 328°
2026-04-29 23:51 39.74875 -86.58823 35523 ft 417 kts 328°
2026-04-29 23:52 39.77534 -86.60221 35681 ft 417 kts 329°
2026-04-29 23:52 39.80221 -86.61636 35820 ft 419 kts 328°
2026-04-29 23:52 39.82916 -86.63054 35980 ft 415 kts 328°
2026-04-29 23:53 39.88285 -86.65889 35982 ft 417 kts 328°
2026-04-29 23:53 39.93683 -86.68744 35982 ft 417 kts 329°
2026-04-29 23:54 39.98911 -86.71806 35989 ft 405 kts 319°
2026-04-29 23:54 40.03035 -86.76516 35988 ft 395 kts 307°
2026-04-29 23:55 40.06779 -86.81780 35991 ft 395 kts 306°
2026-04-29 23:55 40.10453 -86.87057 35983 ft 394 kts 306°
2026-04-29 23:56 40.14125 -86.92396 36002 ft 395 kts 306°
2026-04-29 23:56 40.17794 -86.97759 36004 ft 395 kts 306°
2026-04-29 23:57 40.21445 -87.03116 36004 ft 396 kts 306°
2026-04-29 23:57 40.25100 -87.08492 36006 ft 395 kts 306°
2026-04-29 23:58 40.28732 -87.13847 36003 ft 395 kts 306°
2026-04-29 23:58 40.32398 -87.19263 36004 ft 397 kts 306°
2026-04-29 23:59 40.36039 -87.24650 35999 ft 397 kts 306°
2026-04-29 23:59 40.39696 -87.30070 36003 ft 399 kts 306°
2026-04-30 00:00 40.43374 -87.35532 36008 ft 399 kts 306°
2026-04-30 00:00 40.47012 -87.40944 35996 ft 397 kts 306°
2026-04-30 00:01 40.50678 -87.46408 36000 ft 399 kts 306°
2026-04-30 00:01 40.54343 -87.51880 36005 ft 399 kts 306°
2026-04-30 00:02 40.57973 -87.57307 35998 ft 397 kts 306°
2026-04-30 00:02 40.61627 -87.62783 36006 ft 400 kts 306°
2026-04-30 00:03 40.65297 -87.68293 36018 ft 401 kts 305°
2026-04-30 00:03 40.68980 -87.73830 36023 ft 400 kts 305°
2026-04-30 00:04 40.72631 -87.79331 36024 ft 401 kts 305°
2026-04-30 00:04 40.76301 -87.84870 36024 ft 401 kts 306°
2026-04-30 00:05 40.79946 -87.90382 35874 ft 407 kts 305°
2026-04-30 00:05 40.81827 -87.93235 35301 ft 412 kts 305°
2026-04-30 00:05 40.83671 -87.96018 34783 ft 396 kts 305°
2026-04-30 00:05 40.85438 -87.98686 34484 ft 369 kts 304°
2026-04-30 00:06 40.87065 -88.01150 34138 ft 351 kts 304°
2026-04-30 00:06 40.88639 -88.03553 33801 ft 353 kts 304°
2026-04-30 00:06 40.90266 -88.06037 33452 ft 360 kts 304°
2026-04-30 00:06 40.91909 -88.08542 33111 ft 365 kts 304°
2026-04-30 00:07 40.93594 -88.11114 32758 ft 369 kts 304°
2026-04-30 00:07 40.95267 -88.13663 32396 ft 370 kts 304°
2026-04-30 00:07 40.96942 -88.16215 31974 ft 368 kts 304°
2026-04-30 00:07 40.98619 -88.18775 31540 ft 368 kts 304°
2026-04-30 00:08 41.00297 -88.21341 31086 ft 371 kts 304°
2026-04-30 00:08 41.01968 -88.23898 30688 ft 377 kts 304°
2026-04-30 00:08 41.03696 -88.26548 30234 ft 382 kts 304°
2026-04-30 00:08 41.05425 -88.29192 29728 ft 377 kts 304°
2026-04-30 00:09 41.07115 -88.31781 29223 ft 372 kts 304°
2026-04-30 00:09 41.08814 -88.34389 28717 ft 372 kts 304°
2026-04-30 00:09 41.10496 -88.36977 28224 ft 377 kts 304°
2026-04-30 00:09 41.12239 -88.39659 27718 ft 380 kts 304°
2026-04-30 00:10 41.13959 -88.42304 27224 ft 381 kts 305°
2026-04-30 00:10 41.15674 -88.44945 26730 ft 381 kts 305°
2026-04-30 00:10 41.17384 -88.47579 26231 ft 377 kts 305°
2026-04-30 00:10 41.19076 -88.50188 25718 ft 373 kts 305°
2026-04-30 00:11 41.20763 -88.52793 25241 ft 370 kts 306°
2026-04-30 00:11 41.22434 -88.55378 24746 ft 370 kts 306°
2026-04-30 00:11 41.24111 -88.57973 24242 ft 368 kts 306°
2026-04-30 00:11 41.25746 -88.60502 23736 ft 363 kts 306°
2026-04-30 00:12 41.27394 -88.63057 23254 ft 360 kts 306°
2026-04-30 00:12 41.29018 -88.65578 22789 ft 360 kts 306°
2026-04-30 00:12 41.30634 -88.68088 22327 ft 359 kts 306°
2026-04-30 00:12 41.32249 -88.70596 21854 ft 358 kts 306°
2026-04-30 00:13 41.33864 -88.73106 21381 ft 354 kts 306°
2026-04-30 00:13 41.35464 -88.75597 20914 ft 354 kts 306°
2026-04-30 00:13 41.37047 -88.78063 20447 ft 352 kts 307°
2026-04-30 00:13 41.38638 -88.80542 19978 ft 351 kts 307°
2026-04-30 00:14 41.40210 -88.82995 19502 ft 349 kts 307°
2026-04-30 00:14 41.41790 -88.85463 19023 ft 347 kts 307°
2026-04-30 00:14 41.43336 -88.87878 18554 ft 345 kts 307°
2026-04-30 00:14 41.44878 -88.90288 18087 ft 343 kts 308°
2026-04-30 00:15 41.46428 -88.92714 17602 ft 342 kts 308°
2026-04-30 00:15 41.47970 -88.95129 17146 ft 340 kts 308°
2026-04-30 00:15 41.49474 -88.97487 16728 ft 337 kts 308°
2026-04-30 00:15 41.50983 -88.99855 16306 ft 336 kts 308°
2026-04-30 00:16 41.52497 -89.02233 15882 ft 334 kts 308°
2026-04-30 00:16 41.54006 -89.04603 15453 ft 332 kts 309°
2026-04-30 00:16 41.55486 -89.06930 15027 ft 331 kts 309°
2026-04-30 00:16 41.56960 -89.09250 14607 ft 330 kts 309°
2026-04-30 00:17 41.58393 -89.11505 14136 ft 299 kts 309°
2026-04-30 00:17 41.59675 -89.13525 13913 ft 286 kts 309°
2026-04-30 00:17 41.60986 -89.15595 13690 ft 296 kts 309°
2026-04-30 00:17 41.62306 -89.17679 13447 ft 293 kts 310°
2026-04-30 00:18 41.63623 -89.19758 13199 ft 289 kts 310°
2026-04-30 00:18 41.64920 -89.21809 12979 ft 288 kts 310°
2026-04-30 00:18 41.66195 -89.23823 12966 ft 284 kts 310°
2026-04-30 00:18 41.67421 -89.25759 12799 ft 261 kts 311°
2026-04-30 00:19 41.68840 -89.27211 12470 ft 262 kts 336°
2026-04-30 00:19 41.70652 -89.27624 11908 ft 272 kts
2026-04-30 00:19 41.72424 -89.26846 11347 ft 277 kts 29°
2026-04-30 00:19 41.73872 -89.25101 10760 ft 280 kts 39°
2026-04-30 00:20 41.75399 -89.23646 10156 ft 264 kts 14°
2026-04-30 00:20 41.77122 -89.22924 9599 ft 259 kts 15°
2026-04-30 00:20 41.78793 -89.22098 9097 ft 257 kts 15°
2026-04-30 00:20 41.80474 -89.21285 8580 ft 255 kts 15°
2026-04-30 00:21 41.82150 -89.20481 8122 ft 257 kts 15°
2026-04-30 00:21 41.83836 -89.19675 7600 ft 259 kts 15°
2026-04-30 00:21 41.85536 -89.18865 7193 ft 257 kts 15°
2026-04-30 00:21 41.87156 -89.18086 6928 ft 238 kts 14°
2026-04-30 00:22 41.88676 -89.17360 6470 ft 231 kts 14°
2026-04-30 00:22 41.90174 -89.16649 5962 ft 226 kts 14°
2026-04-30 00:22 41.91615 -89.15961 5637 ft 214 kts 14°
2026-04-30 00:22 41.93012 -89.15297 5214 ft 208 kts 14°
2026-04-30 00:23 41.94309 -89.14674 5050 ft 192 kts 14°
2026-04-30 00:23 41.95573 -89.14075 4516 ft 195 kts 14°
2026-04-30 00:23 41.96826 -89.13479 4108 ft 192 kts 14°
2026-04-30 00:23 41.98027 -89.12829 3953 ft 182 kts 15°
2026-04-30 00:24 41.99258 -89.12289 3803 ft 184 kts 11°
2026-04-30 00:24 42.00504 -89.11871 3803 ft 186 kts
2026-04-30 00:24 42.01787 -89.11527 3744 ft 192 kts
2026-04-30 00:24 42.03100 -89.11240 3513 ft 191 kts
2026-04-30 00:25 42.04396 -89.11002 3282 ft 186 kts
2026-04-30 00:25 42.05669 -89.10796 3056 ft 180 kts
2026-04-30 00:25 42.06869 -89.10619 2819 ft 163 kts
2026-04-30 00:25 42.07946 -89.10469 2643 ft 155 kts
2026-04-30 00:26 42.09069 -89.10323 2496 ft 166 kts
2026-04-30 00:26 42.10217 -89.10174 2274 ft 165 kts
2026-04-30 00:26 42.11353 -89.10029 2062 ft 164 kts
2026-04-30 00:26 42.12492 -89.09884 1839 ft 156 kts
2026-04-30 00:27 42.13509 -89.09752 1644 ft 136 kts
2026-04-30 00:27 42.14380 -89.09641 1459 ft 121 kts
2026-04-30 00:27 42.15227 -89.09537 1354 ft 125 kts
2026-04-30 00:27 42.16119 -89.09439 1209 ft 130 kts
2026-04-30 00:28 42.17013 -89.09332 1037 ft 128 kts
2026-04-30 00:28 42.17905 -89.09204 869 ft 128 kts
2026-04-30 00:28 42.18798 -89.09090 757 ft 126 kts
2026-04-30 00:28 42.19534 -89.09002 752 ft 83 kts
2026-04-30 00:29 42.20013 -89.08940 752 ft 47 kts
2026-04-30 00:29 42.20150 -89.09001 752 ft 16 kts 273°
2026-04-30 00:29 42.20142 -89.09061 752 ft 0 kts 249°
2026-04-30 00:30 42.20137 -89.09077 752 ft 3 kts 248°
2026-04-30 00:30 42.20125 -89.09116 752 ft 5 kts 247°
2026-04-30 00:30 42.20108 -89.09164 752 ft 5 kts 244°
2026-04-30 00:30 42.20089 -89.09218 752 ft 6 kts 244°
2026-04-30 00:31 42.20068 -89.09277 752 ft 7 kts 245°
2026-04-30 00:31 42.20045 -89.09348 752 ft 12 kts 246°
2026-04-30 00:31 42.19991 -89.09506 752 ft 20 kts 245°
2026-04-30 00:31 42.19936 -89.09685 752 ft 20 kts 245°
2026-04-30 00:32 42.19880 -89.09841 752 ft 16 kts 242°
2026-04-30 00:32 42.19838 -89.09955 752 ft 10 kts 246°
2026-04-30 00:32 42.19815 -89.10025 752 ft 6 kts 245°
2026-04-30 00:32 42.19794 -89.10085 752 ft 9 kts 245°
2026-04-30 00:33 42.19755 -89.10197 752 ft 16 kts 244°
2026-04-30 00:33 42.19709 -89.10332 752 ft 13 kts 246°
2026-04-30 00:33 42.19699 -89.10431 752 ft 9 kts 297°
2026-04-30 00:33 42.19740 -89.10452 752 ft 5 kts 26°
2026-04-30 00:34 42.19770 -89.10425 752 ft 4 kts 30°
2026-04-30 00:34 42.19796 -89.10416 752 ft 1 kts 352°
2026-04-30 00:34 42.19800 -89.10418 752 ft 0 kts 334°
2026-04-30 00:35 42.19801 -89.10418 752 ft 0 kts 331°
2026-04-30 00:35 42.19802 -89.10442 752 ft 0 kts 251°
2026-04-30 00:36 42.19803 -89.10445 752 ft 0 kts 245°
2026-04-30 00:36 42.19804 -89.10444 752 ft 0 kts 245°